User: anonymous   Login
Location: D�derode
(51.8092°N, 10.1065°E)
Time: 20:27:44
(UTC+00:00)
Language:

Cosmos 2056 Rocket - Orbit

View from above orbital plane
View from above orbital plane
View from above satellite
View from above satellite

Ground track
Ground track

The orbit data is extracted from the following two-line orbital elements,

1 20433U 90004B   21055.39884256 -.00000026  00000-0  12447-6 0  9996
2 20433  74.0359  40.8420 0041520 202.9998 308.1367 14.36122212628458
Epoch (UTC): 24 February 2021 09:34:19
Eccentricity: 0.0041520
inclination: 74.0359°
perigee height: 741 km
apogee height: 801 km
right ascension of ascending node: 40.8420°
argument of perigee: 202.9998°
revolutions per day: 14.36122212
mean anomaly at epoch: 308.1367°
orbit number at epoch: 62845

The dashed part of the orbit path shows where the satellite is in the earth's shadow,  

DLR